Stanley, ID

8:13 AM MDT on April 29, 2017 (GMT -0600)
Stanley

Weather History for KSNT - March, 2013

Change the Weather History Date:

Tuesday, March 12, 2013

  Actual Average Record
Temperature  
Mean Temperature 34 °F 26 °F  
Max Temperature 47 °F 41 °F 59 °F (1992)
Min Temperature 21 °F 11 °F -31 °F (1922)
Degree Days  
Heating Degree Days 31 39  
Month to date heating degree days 485 486  
Since 1 July heating degree days 7570 8020  
Cooling Degree Days 0 0  
Month to date cooling degree days 0 0  
Year to date cooling degree days 0 0  
Moisture  
Dew Point 21 °F    
Average Humidity 60    
Maximum Humidity 78    
Minimum Humidity 42    
Precipitation  
Precipitation 0.00 in 0.06 in 0.50 in (1964)
Month to date precipitation 0.46 0.55  
Year to date precipitation 1.70 3.86  
Sea Level Pressure  
Sea Level Pressure 30.19 in    
Wind  
Wind Speed 4 mph (SE)    
Max Wind Speed 10 mph    
Max Gust Speed 14 mph    
T = Trace of Precipitation, MM = Missing Value Source: NWS Daily Summary

Daily Weather History Graph

Daily Weather History Graph

Search for Another Location

Airport or City:

Trip Planner

Search our weather history database for the weather conditions in past years. The results will help you decide how hot, cold, wet, or windy it might be!

Date:

Astronomy

Mar. 12, 2013 Rise Set
Actual Time 7:56 AM MDT 7:42 PM MDT
Civil Twilight 7:28 AM MDT 8:11 PM MDT
Nautical Twilight 6:54 AM MDT 8:45 PM MDT
Astronomical Twilight 6:20 AM MDT 9:19 PM MDT
Moon 8:02 AM MDT (3/12) 9:06 PM MDT (3/12)
Length of Visible Light 12h 43m
Length of Day
11h 45m
New Moon, 1% of the Moon is Illuminated
Mar 12
New Moon
Mar 19
First Quarter
Mar 27
Full
Apr 2
Last Quarter
Apr 10
New

Hourly Weather History & Observations

Time (MDT) Temp. Windchill Dew Point Humidity Pressure Visibility Wind Dir Wind Speed Gust Speed Precip Events Conditions
12:51 AM 27.0 °F - 19.0 °F 72% 30.16 in - Calm Calm - N/A   Unknown
1:51 AM 26.1 °F 21.9 °F 19.0 °F 75% 30.16 in - South 3.5 mph - N/A   Unknown
2:51 AM 25.0 °F 20.7 °F 18.0 °F 75% 30.18 in - SSW 3.5 mph - N/A   Unknown
3:51 AM 21.0 °F 16.2 °F 16.0 °F 81% 30.20 in - SSE 3.5 mph - N/A   Unknown
4:51 AM 24.1 °F 17.0 °F 17.1 °F 75% 30.17 in - ESE 5.8 mph - N/A   Unknown
5:51 AM 24.1 °F 19.7 °F 17.1 °F 75% 30.18 in - Variable 3.5 mph - N/A   Unknown
6:51 AM 25.0 °F 19.3 °F 17.1 °F 72% 30.22 in - ESE 4.6 mph - N/A   Unknown
7:51 AM 24.1 °F 18.2 °F 17.1 °F 75% 30.22 in - ESE 4.6 mph - N/A   Unknown
8:51 AM 24.1 °F 16.0 °F 17.1 °F 75% 30.23 in - ESE 6.9 mph - N/A   Unknown
9:51 AM 28.0 °F - 19.0 °F 69% 30.23 in - Calm Calm - N/A   Unknown
10:51 AM 32.0 °F - 19.9 °F 61% 30.21 in - Calm Calm - N/A   Unknown
11:51 AM 35.1 °F 30.1 °F 21.0 °F 57% 30.18 in - North 5.8 mph - N/A   Unknown
12:51 PM 37.0 °F 34.5 °F 23.0 °F 57% 30.19 in - Variable 3.5 mph - N/A   Unknown
1:51 PM 39.9 °F 37.8 °F 25.0 °F 55% 30.18 in - SSE 3.5 mph - N/A   Unknown
2:51 PM 43.0 °F 39.5 °F 25.0 °F 49% 30.16 in - North 5.8 mph - N/A   Unknown
3:51 PM 44.1 °F 39.5 °F 25.0 °F 47% 30.16 in - NW 8.1 mph - N/A   Unknown
4:51 PM 46.0 °F - 24.1 °F 42% 30.14 in - Calm Calm - N/A   Unknown
5:51 PM 46.0 °F 43.9 °F 25.0 °F 44% 30.14 in - North 4.6 mph - N/A   Unknown
6:51 PM 42.1 °F - 24.1 °F 49% 30.17 in - Calm Calm - N/A   Unknown
7:51 PM 37.9 °F 32.1 °F 25.0 °F 60% 30.19 in - SSE 8.1 mph - N/A   Unknown
8:51 PM 35.1 °F 30.1 °F 24.1 °F 64% 30.20 in - SE 5.8 mph - N/A   Unknown
9:51 PM 36.0 °F - 25.0 °F 64% 30.20 in - Calm Calm - N/A   Unknown
10:51 PM 34.0 °F - 25.0 °F 70% 30.20 in - Calm Calm - N/A   Unknown
11:51 PM 30.9 °F - 24.1 °F 76% 30.22 in - Calm Calm - N/A   Unknown